STARLINK-1138

decayed
NORAD ID: 45178 Int'l Des: 2020-012 Owner: SPXS Country: US Constellation: starlink
LEOCIRCULAR
Group

About STARLINK-1138

Description loading...

Altitude History

Altitude vs Time

uPlot chart will show altitude changes over time

Two-Line Element Set

1 45178U 20012A 25024.07640356 .19819865 12526-4 34025-3 0 9998
2 45178 53.0286 49.5129 0003757 214.9461 243.3866 16.47766170272941
Epoch: Jan 24, 2025 • Age: 5647 hours

Current Status

Position data unavailable
Launch Date Feb 17, 2020
Age 5.5 years
Decay Date Jan 24, 2025
Type internet

Technical Details

Classification Payload
Mass 260.00 kg
Dry Mass 248.00 kg
Total Mass 260.00 kg
Length 0.20 m
Diameter 2.80 m
Span 9.00 m
Shape Box + pan
Manufacturer SPXS
Bus Type Starlink
Phase Status Unknown Transfer Status
Owner/State SPXS/US

Large Constellations

Loading constellations...